Temp
64 64 65 66 66 66 65 65 65 66 66 66 66 66 66 65 65 64 56 60 64 71 71 66 67 69 67 61 63 60 50 48 49 54 54 59 57 63 64 58 61 62 62 63 65
65 65 65 65 65 66 65 65 66 66 65 66 65 66 65 65 63 57 66 71 72 72 65 64 63 65 60 59 59 54 47 50 55 54 54 59 58 58 57 57 58 59 63 63 64
65 64 64 66 65 65 64 63 65 65 65 65 65 66 65 64 57 54 72 73 73 71 67 67 66 65 57 58 57 54 50 57 56 57 58 57 56 57 53 53 54 54 60 62 62
64 64 63 64 65 64 64 63 65 65 65 65 66 66 65 61 46 60 73 74 74 70 67 67 64 57 53 52 56 52 57 58 57 56 56 53 56 54 54 57 61 61 62 61 61
64 63 62 62 62 63 64 65 65 65 65 65 65 65 61 53 51 68 72 71 70 68 64 63 59 57 53 55 55 52 53 57 56 55 54 56 52 52 54 59 61 62 62 59 58
63 64 63 62 61 62 64 65 65 65 65 65 65 64 56 47 64 67 67 67 66 65 60 60 57 59 55 52 52 52 55 54 54 55 55 52 51 52 56 57 60 62 59 57 58
63 62 63 63 63 64 65 65 65 65 65 66 65 65 55 51 63 65 68 63 63 63 59 60 59 60 54 51 54 53 48 50 51 54 52 52 50 48 55 58 58 59 60 60 60
64 63 63 63 63 63 64 64 64 63 64 65 66 60 49 65 63 66 66 63 65 66 62 61 61 57 54 52 53 48 47 42 50 53 53 52 46 55 58 54 56 58 59 59 59
63 63 63 63 63 63 63 63 63 64 65 66 61 57 48 66 61 64 63 61 63 63 62 68 60 53 52 46 42 45 38 42 47 53 51 48 46 53 57 54 54 55 56 57 57
62 61 62 62 63 63 63 63 63 63 63 68 66 53 57 55 60 62 64 64 60 59 58 57 51 44 42 40 35 35 36 42 42 48 48 45 46 53 55 56 53 52 55 54 55
60 60 61 61 62 62 60 57 53 51 57 52 51 53 56 62 63 60 63 61 59 56 47 50 38 31 38 42 45 43 41 40 45 50 47 43 45 50 54 52 50 51 50 53 53
60 60 60 61 61 61 57 52 50 55 48 58 58 57 60 59 55 57 62 54 53 45 48 42 34 44 49 48 46 43 40 41 45 49 46 44 45 49 54 52 51 53 51 51 51
59 59 60 61 61 57 52 51 58 57 48 53 57 55 56 59 51 52 57 54 50 45 43 38 43 50 49 47 46 41 38 38 37 44 44 42 42 47 52 53 54 53 52 51 52
59 59 60 60 57 55 51 58 58 56 34 45 51 54 58 56 49 59 58 53 50 43 43 41 47 48 45 45 44 39 45 43 41 34 28 40 28 41 45 47 49 46 48 49 50
58 59 60 60 54 51 54 58 56 52 21 48 51 62 59 52 52 54 58 55 45 46 44 39 42 42 44 44 45 42 45 42 40 31 29 35 26 38 45 44 45 45 47 48 49
58 58 60 57 52 53 56 55 52 33 21 38 51 50 50 52 52 54 54 56 53 48 46 42 48 45 44 48 46 47 41 39 35 30 22 32 28 29 38 43 45 45 47 51 51
57 58 58 59 50 55 54 49 31 25 44 40 42 49 48 46 49 50 48 44 41 32 28 41 43 46 48 42 45 40 30 20 22 24 23 31 25 32 44 46 48 48 48 50 50
57 57 57 57 54 53 50 41 27 40 37 47 46 47 43 46 45 47 45 40 45 42 29 28 27 41 46 42 36 37 32 22 22 20 23 33 25 34 47 49 50 51 51 50 50
56 52 52 52 55 51 46 29 31 36 46 44 45 40 39 45 44 43 40 40 42 43 33 32 32 44 47 47 44 37 30 38 27 28 24 25 35 44 46 46 49 49 50 48 48
48 50 50 54 53 49 38 35 35 46 47 47 37 41 36 40 39 39 39 43 43 45 42 37 28 41 43 45 43 38 42 30 26 25 24 24 30 28 35 41 47 47 47 47 49
49 47 52 54 51 44 32 32 42 49 48 45 41 40 41 39 39 38 38 43 46 44 43 40 35 34 40 36 35 35 33 35 34 30 25 24 26 40 37 44 46 47 48 47 47
47 40 53 52 42 37 35 42 47 46 48 47 45 44 40 41 38 38 38 41 48 46 39 40 36 25 34 40 43 40 38 37 26 29 28 27 27 45 45 47 48 46 48 47 48
45 45 52 51 34 33 40 44 46 45 45 45 44 46 44 40 35 39 40 46 47 45 39 41 33 21 30 35 38 35 39 40 37 31 27 25 30 45 39 43 46 42 44 47 49
46 40 44 45 42 39 38 40 40 45 45 47 44 45 41 39 41 37 39 44 45 45 49 46 35 31 26 31 35 32 37 39 35 23 27 29 32 39 42 43 42 42 42 44 47
44 39 41 36 41 41 41 42 40 39 44 45 41 42 40 35 37 36 40 40 43 46 42 40 31 31 34 37 37 37 37 38 31 35 30 33 35 40 43 40 43 43 46 46 47
43 41 41 41 44 42 42 40 42 43 43 40 40 44 42 38 39 37 40 39 40 38 39 40 32 32 30 37 36 33 37 38 39 40 38 39 39 49 50 45 44 43 46 46 46
45 46 44 43 41 39 39 42 44 45 46 47 45 42 41 44 43 43 43 43 42 40 38 37 33 29 27 33 34 30 36 38 36 39 41 34 42 43 43 45 42 44 44 44 45
MSLP
1011.50 1011.91 1012.04 1012.28 1012.39 1012.34 1012.58 1013.12 1013.71 1014.08 1014.52 1014.88 1015.24 1015.36 1015.48 1015.78 1015.83 1015.71 1016.11 1016.11 1015.80 1015.32 1015.14 1014.79 1014.23 1013.77 1013.69 1014.02 1014.08 1014.23 1015.00 1015.68 1015.81 1015.48 1015.84 1015.51 1015.67 1015.58 1015.57 1015.67 1015.68 1015.58 1016.07 1016.68 1017.14
1011.99 1012.31 1012.45 1012.38 1012.43 1012.37 1012.83 1013.55 1013.93 1014.28 1014.75 1015.00 1015.37 1015.56 1015.74 1015.95 1015.76 1015.98 1016.10 1015.58 1015.38 1015.16 1015.08 1014.77 1014.28 1013.99 1014.07 1014.27 1014.45 1014.81 1015.73 1016.25 1016.33 1016.18 1016.15 1016.04 1016.15 1016.19 1016.06 1016.16 1016.09 1016.13 1016.76 1017.02 1017.17
1012.69 1012.74 1012.63 1012.35 1012.60 1012.98 1013.63 1014.21 1014.43 1014.80 1015.02 1015.18 1015.52 1015.75 1015.87 1016.05 1016.13 1016.32 1015.65 1015.26 1015.06 1014.89 1014.91 1014.63 1014.11 1014.11 1014.28 1014.52 1014.95 1015.42 1016.22 1016.46 1016.95 1016.83 1016.69 1016.69 1016.73 1016.79 1016.53 1016.55 1016.53 1016.66 1016.96 1017.31 1017.32
1013.47 1013.34 1013.20 1013.07 1013.48 1013.93 1014.40 1014.70 1014.72 1015.24 1015.35 1015.47 1015.69 1015.88 1015.96 1016.06 1016.71 1016.08 1015.40 1015.06 1014.77 1014.62 1014.59 1014.23 1013.96 1014.43 1014.85 1015.18 1015.37 1016.03 1016.63 1016.70 1017.24 1017.37 1017.28 1017.43 1017.49 1017.25 1016.93 1016.47 1016.39 1016.55 1016.77 1017.08 1017.27
1014.01 1014.11 1014.14 1014.07 1014.33 1014.88 1014.98 1015.33 1015.51 1015.63 1015.60 1015.69 1015.88 1015.94 1015.93 1016.28 1016.72 1015.84 1015.36 1014.99 1014.61 1014.51 1014.74 1014.78 1014.66 1014.75 1015.34 1015.60 1015.81 1016.26 1016.98 1017.39 1017.61 1017.62 1017.68 1017.78 1017.87 1017.81 1016.90 1016.25 1016.27 1016.50 1016.78 1016.90 1017.14
1014.72 1014.79 1014.80 1014.84 1014.57 1015.29 1015.43 1015.63 1015.69 1015.69 1015.68 1015.81 1015.87 1015.83 1016.13 1016.54 1016.39 1015.82 1015.51 1015.09 1014.91 1014.74 1015.18 1015.29 1015.60 1015.29 1015.92 1016.34 1016.57 1016.82 1017.06 1017.61 1017.84 1017.88 1017.93 1018.09 1017.94 1017.90 1016.27 1015.71 1016.00 1016.29 1016.51 1016.76 1016.99
1015.29 1015.37 1015.29 1015.26 1015.43 1016.08 1015.73 1015.81 1015.74 1015.65 1015.69 1015.80 1015.81 1015.80 1016.19 1016.90 1016.44 1015.97 1015.46 1015.35 1015.21 1014.99 1015.44 1015.65 1015.75 1015.68 1016.45 1016.88 1017.10 1017.10 1017.39 1017.69 1017.95 1018.07 1018.20 1018.24 1017.72 1017.51 1016.03 1016.00 1016.20 1016.38 1016.42 1016.54 1016.61
1015.82 1015.71 1015.58 1015.76 1016.04 1016.07 1015.93 1015.78 1015.74 1015.73 1015.85 1015.85 1015.63 1015.76 1016.71 1016.50 1016.35 1015.96 1015.78 1015.68 1015.43 1015.12 1015.48 1015.70 1015.90 1016.43 1017.17 1017.57 1017.64 1017.64 1017.68 1018.08 1017.96 1018.11 1018.37 1018.39 1017.55 1016.51 1015.90 1016.12 1016.29 1016.28 1016.36 1016.36 1016.44
1016.14 1015.85 1016.00 1016.01 1015.96 1015.89 1015.86 1015.92 1015.94 1015.97 1015.84 1015.61 1015.53 1015.71 1016.85 1016.50 1016.54 1016.41 1016.10 1016.02 1015.76 1015.62 1015.76 1015.83 1016.14 1017.51 1017.88 1018.35 1018.74 1018.44 1018.29 1018.21 1018.04 1018.23 1018.55 1018.63 1017.77 1016.76 1016.24 1016.15 1016.36 1016.27 1016.24 1016.23 1016.31
1016.60 1016.51 1016.34 1016.17 1016.04 1016.02 1016.14 1016.35 1016.49 1016.41 1016.07 1015.69 1015.50 1016.20 1016.86 1017.05 1016.86 1016.70 1016.24 1016.03 1015.91 1015.97 1016.28 1016.52 1017.35 1018.67 1019.31 1019.28 1019.88 1019.36 1018.84 1018.61 1018.49 1018.81 1018.79 1018.79 1017.74 1016.56 1016.45 1016.16 1016.01 1016.17 1016.10 1016.17 1016.40
1017.07 1016.72 1016.50 1016.44 1016.52 1016.56 1016.67 1016.72 1017.12 1017.08 1016.80 1017.04 1017.07 1017.19 1017.34 1017.19 1016.99 1016.87 1016.61 1016.32 1016.11 1016.49 1017.43 1018.03 1019.01 1020.45 1020.38 1019.81 1019.72 1019.65 1019.25 1019.26 1018.90 1019.02 1019.05 1018.97 1018.21 1016.64 1015.67 1015.53 1015.63 1015.93 1016.07 1016.51 1016.99
1017.52 1017.29 1017.02 1016.80 1016.83 1016.99 1017.27 1017.46 1017.73 1017.57 1017.60 1017.38 1017.45 1017.62 1017.53 1017.49 1017.34 1017.20 1016.86 1016.87 1016.87 1017.64 1018.16 1019.13 1020.31 1020.78 1020.36 1019.89 1020.03 1019.76 1019.61 1019.89 1019.91 1019.74 1020.27 1019.36 1017.99 1016.73 1015.69 1015.23 1015.15 1015.75 1016.41 1016.84 1017.23
1017.60 1017.30 1017.01 1017.01 1016.98 1017.21 1017.72 1018.05 1017.77 1017.38 1017.61 1018.22 1017.95 1018.09 1017.99 1017.75 1018.09 1017.98 1017.72 1017.44 1017.83 1018.61 1019.30 1019.97 1021.02 1020.78 1020.41 1019.93 1020.35 1020.37 1020.63 1021.04 1021.39 1020.93 1020.67 1020.22 1018.59 1017.12 1016.35 1015.86 1015.72 1016.09 1016.50 1016.94 1017.17
1017.83 1017.47 1017.20 1017.19 1017.48 1017.57 1018.12 1017.97 1017.68 1017.55 1018.53 1019.18 1018.37 1018.15 1017.96 1017.93 1018.45 1018.25 1018.12 1018.11 1018.43 1019.48 1020.07 1020.75 1020.97 1020.66 1020.57 1020.87 1021.02 1020.93 1021.38 1021.83 1022.06 1022.74 1022.33 1021.30 1020.23 1018.27 1017.14 1016.62 1016.42 1016.77 1016.94 1017.08 1017.13
1017.96 1017.59 1017.36 1017.41 1017.53 1017.89 1018.35 1017.97 1017.82 1018.09 1019.35 1019.75 1018.64 1017.95 1017.86 1018.27 1018.56 1018.35 1018.09 1017.93 1018.87 1019.70 1020.42 1021.43 1021.30 1021.25 1021.30 1021.23 1021.04 1021.53 1022.06 1022.30 1023.00 1023.61 1023.62 1022.36 1021.92 1019.10 1017.80 1017.16 1017.16 1017.39 1017.46 1017.32 1017.23
1018.10 1017.61 1017.15 1017.41 1017.92 1018.36 1018.15 1018.08 1018.33 1019.06 1020.51 1019.91 1018.98 1018.48 1018.46 1018.34 1018.36 1018.29 1018.31 1018.46 1019.17 1019.98 1020.89 1021.56 1021.53 1021.55 1021.35 1021.24 1021.47 1021.81 1022.34 1023.22 1024.02 1024.41 1024.41 1023.11 1022.58 1020.18 1018.57 1017.68 1017.72 1017.75 1017.57 1017.37 1017.38
1018.34 1017.95 1017.55 1017.81 1018.46 1018.27 1018.27 1018.67 1019.67 1020.14 1021.00 1020.28 1019.37 1018.71 1018.53 1018.62 1018.57 1018.57 1018.82 1019.29 1019.89 1021.19 1021.85 1021.78 1021.77 1021.59 1021.43 1021.49 1021.68 1022.33 1023.60 1024.54 1025.24 1025.03 1024.95 1023.59 1023.15 1020.33 1018.48 1017.79 1017.70 1017.85 1017.70 1017.54 1017.51
1018.49 1018.33 1018.25 1018.32 1018.35 1018.30 1018.51 1019.19 1020.44 1020.95 1020.57 1020.06 1019.49 1019.01 1018.89 1018.90 1018.88 1018.89 1019.32 1020.05 1020.35 1020.73 1021.77 1022.08 1022.10 1021.90 1021.72 1021.88 1022.31 1022.85 1023.80 1024.88 1025.71 1025.80 1025.06 1023.88 1022.15 1019.75 1018.38 1018.04 1017.77 1017.71 1017.73 1017.91 1017.89
1018.47 1018.43 1018.49 1018.60 1018.28 1018.35 1018.89 1020.45 1021.34 1021.05 1020.34 1020.00 1019.63 1019.31 1019.20 1019.10 1019.10 1019.19 1019.48 1020.10 1020.57 1020.87 1021.65 1022.02 1022.20 1022.11 1022.04 1022.15 1022.60 1022.98 1023.65 1024.25 1025.22 1025.34 1024.98 1022.93 1021.10 1019.67 1018.71 1018.33 1018.04 1017.98 1017.91 1017.98 1017.95
1019.01 1018.95 1018.94 1018.50 1018.39 1018.74 1019.84 1021.35 1021.46 1020.97 1020.47 1019.88 1019.75 1019.42 1019.39 1019.35 1019.48 1019.59 1019.99 1020.53 1020.92 1021.19 1021.44 1021.84 1022.27 1022.35 1022.47 1022.45 1022.76 1023.06 1023.67 1024.33 1024.97 1025.27 1024.76 1022.75 1021.24 1019.81 1019.42 1018.83 1018.31 1018.10 1018.12 1018.05 1018.06
1019.03 1019.42 1018.85 1018.47 1018.61 1019.24 1021.07 1021.51 1021.31 1020.89 1020.50 1020.19 1019.91 1019.61 1019.52 1019.52 1019.65 1019.82 1020.35 1020.91 1020.85 1021.27 1021.45 1021.78 1022.43 1023.08 1022.96 1022.89 1022.79 1023.44 1023.50 1023.86 1024.38 1024.64 1024.56 1023.50 1021.54 1019.04 1018.97 1018.64 1018.35 1018.22 1018.23 1018.13 1018.16
1019.40 1019.80 1018.83 1018.61 1019.49 1020.56 1021.53 1021.25 1021.03 1020.84 1020.45 1020.20 1020.03 1019.92 1019.90 1019.80 1019.91 1020.14 1020.59 1020.90 1020.99 1021.26 1021.75 1022.30 1022.92 1023.45 1023.21 1022.77 1022.56 1022.64 1022.87 1023.27 1024.29 1024.33 1024.09 1023.40 1020.59 1018.76 1018.65 1018.41 1018.31 1018.29 1018.26 1018.34 1018.22
1020.33 1020.05 1019.07 1019.10 1020.55 1021.68 1021.48 1021.29 1021.07 1020.78 1020.66 1020.41 1020.33 1020.29 1020.11 1020.21 1020.50 1020.52 1020.86 1021.26 1021.26 1021.64 1022.15 1022.59 1023.34 1023.70 1023.51 1023.43 1022.95 1022.79 1022.70 1022.90 1023.53 1023.92 1023.76 1023.17 1020.27 1018.75 1018.65 1018.53 1018.32 1018.45 1018.59 1018.64 1018.44
1020.25 1021.04 1020.48 1020.34 1021.29 1021.30 1021.28 1021.21 1021.20 1020.96 1020.80 1020.61 1020.58 1020.47 1020.47 1020.54 1020.67 1020.96 1021.24 1021.59 1021.72 1022.02 1022.30 1022.71 1023.46 1023.87 1023.77 1023.18 1022.88 1022.97 1022.55 1022.55 1023.11 1023.72 1022.90 1021.42 1019.89 1019.09 1018.73 1018.52 1018.47 1018.48 1018.63 1018.77 1018.71
1020.90 1022.53 1022.48 1022.43 1021.88 1021.69 1021.15 1020.98 1021.04 1021.04 1020.93 1020.82 1020.77 1020.66 1020.71 1020.79 1020.88 1021.11 1021.27 1021.80 1022.13 1022.41 1022.70 1023.26 1023.83 1023.75 1023.43 1022.96 1022.67 1022.12 1021.75 1021.84 1022.13 1021.59 1021.70 1020.06 1019.37 1018.57 1018.26 1018.21 1018.25 1018.41 1018.55 1018.65 1018.64
1022.16 1022.48 1022.50 1022.51 1021.98 1021.71 1021.57 1021.26 1020.88 1020.81 1020.82 1020.87 1020.87 1020.67 1020.70 1020.86 1021.00 1021.13 1021.31 1021.69 1022.08 1022.82 1023.06 1023.45 1023.88 1023.92 1023.40 1022.42 1022.10 1021.46 1020.43 1020.55 1020.61 1020.48 1020.11 1019.66 1018.06 1017.65 1017.50 1017.77 1018.16 1018.34 1018.50 1018.64 1018.74
1022.67 1022.62 1022.43 1022.44 1022.06 1021.97 1022.11 1021.57 1021.32 1021.08 1020.90 1020.72 1020.78 1020.82 1020.88 1020.94 1021.08 1021.15 1021.34 1021.71 1022.08 1022.62 1023.30 1023.78 1024.26 1024.52 1023.78 1022.66 1021.80 1020.32 1018.51 1018.65 1018.81 1018.40 1018.37 1018.69 1016.82 1017.09 1017.48 1017.81 1018.06 1018.23 1018.50 1018.79 1018.93
Wind_Speed
17 12 10 8 7 6 12 17 15 13 10 9 7 6 8 5 4 1 4 4 7 13 12 7 5 5 1 1 2 2 5 2 3 4 4 1 2 3 3 1 2 3 5 7 9
19 15 10 8 7 8 15 12 12 11 9 8 5 4 1 2 2 8 5 8 8 8 4 3 2 1 3 1 3 5 5 1 3 1 3 3 4 2 2 4 3 0 6 5 6
17 16 15 9 13 15 17 13 9 9 8 6 5 4 3 4 0 1 11 8 6 4 5 4 4 1 3 2 4 3 3 5 3 3 4 2 2 6 2 3 2 3 8 6 5
16 17 21 26 17 18 17 14 11 9 8 6 5 5 6 2 5 4 13 8 6 4 5 4 4 3 3 3 2 6 4 3 2 3 3 2 5 6 4 8 4 7 9 6 6
16 19 22 23 23 15 15 11 10 7 7 4 4 6 4 6 2 7 10 8 2 3 4 4 2 2 4 4 3 4 2 5 3 3 1 2 4 5 9 11 9 3 7 8 6
16 18 17 19 22 7 10 10 8 6 4 4 5 6 1 6 6 8 5 5 5 4 5 7 3 3 5 4 5 2 5 4 1 0 1 1 4 5 7 3 3 6 6 4 6
12 11 12 14 15 6 9 6 5 4 4 4 6 1 9 3 4 9 2 2 3 2 4 3 4 7 2 4 2 2 2 0 2 1 0 2 3 7 8 3 4 6 7 7 8
13 9 13 12 9 7 7 6 3 1 5 4 3 3 4 3 5 7 5 2 5 6 5 1 5 7 5 1 2 2 4 2 2 2 2 2 9 4 4 6 7 8 8 8 9
11 11 10 7 6 7 6 3 1 6 7 7 4 5 3 0 3 6 4 2 1 3 3 1 5 4 3 4 5 4 1 3 2 2 2 0 10 5 4 3 7 8 8 7 7
11 9 6 6 6 7 4 6 8 7 6 4 1 6 5 3 3 5 4 4 3 2 4 6 6 5 6 6 4 2 2 4 2 1 2 4 18 13 12 14 12 9 9 5 6
12 9 9 4 4 1 6 3 4 7 9 5 1 5 2 5 2 6 4 6 0 6 4 4 10 2 2 2 0 1 0 3 1 2 7 4 14 18 14 8 8 7 3 7 8
12 8 6 1 3 2 2 2 1 3 6 7 6 4 1 1 3 9 8 3 3 4 3 8 4 1 3 1 0 1 3 4 5 2 4 6 18 7 6 4 4 7 7 8 6
13 9 4 4 3 5 5 1 4 4 7 4 3 3 4 5 4 7 6 3 6 6 4 7 3 2 1 5 4 2 1 1 3 8 4 7 7 2 4 5 8 7 6 5 8
12 11 6 2 3 2 2 3 4 3 7 8 4 4 3 2 4 3 3 2 7 4 4 5 2 3 2 2 1 1 2 2 4 6 3 3 5 5 0 1 2 5 5 5 5
12 12 7 3 3 3 1 3 4 4 7 5 4 2 4 4 3 6 2 5 4 3 6 4 3 2 4 2 1 2 0 1 1 2 4 3 5 8 2 1 3 5 5 5 3
11 12 6 4 4 1 3 4 4 10 2 4 2 0 1 1 1 1 2 5 2 5 6 3 1 1 1 1 1 1 4 3 3 3 4 4 6 7 2 1 3 1 4 5 3
10 11 5 2 2 3 2 3 9 8 3 3 1 2 3 1 2 1 3 3 2 5 3 2 1 1 1 2 3 7 6 5 7 5 5 1 4 10 4 3 6 5 4 4 3
10 7 3 2 2 2 2 8 9 2 2 2 1 1 2 3 2 0 2 2 5 3 4 4 7 1 0 2 2 2 6 7 4 1 6 2 6 6 2 5 5 3 6 6 5
7 2 2 4 3 2 6 7 7 1 1 2 1 1 1 1 1 2 3 2 3 5 5 2 3 1 3 3 3 1 1 3 3 3 4 4 5 5 3 3 6 6 6 4 3
2 2 3 4 2 4 8 4 3 2 4 1 1 1 2 3 1 2 3 2 2 2 2 1 2 1 0 3 2 1 0 2 3 1 4 6 4 6 2 4 3 4 4 1 4
3 4 4 3 3 7 5 3 3 1 3 3 4 2 3 2 1 1 2 2 2 1 3 2 4 4 3 4 7 1 2 2 2 5 4 3 8 5 9 7 5 4 5 3 3
2 4 3 3 6 3 3 2 1 1 2 2 2 3 3 2 2 3 2 2 4 1 2 0 3 3 6 1 1 3 3 5 5 3 2 4 10 3 8 8 3 5 4 5 4
3 1 3 5 4 2 1 2 3 1 2 4 2 4 2 2 2 3 3 2 3 3 2 1 1 4 7 5 3 2 4 4 3 3 5 5 8 1 2 4 6 3 5 5 6
4 4 6 6 1 5 2 2 2 1 1 1 2 1 1 1 2 1 1 1 2 2 2 3 1 6 7 5 3 4 5 6 6 3 4 8 4 3 4 3 1 1 3 5 6
4 1 3 4 5 4 1 0 3 1 0 0 1 2 0 2 3 2 2 2 1 3 1 4 3 3 6 8 6 9 11 10 11 11 9 4 7 6 7 4 4 1 4 6 7
3 3 3 2 2 5 5 3 1 2 4 2 3 3 3 3 2 2 1 4 4 1 3 1 3 3 6 7 6 7 12 13 15 15 16 14 25 13 13 5 2 3 4 6 7
3 3 3 3 3 4 3 3 3 3 3 2 1 1 2 3 1 2 3 2 3 6 6 5 2 3 6 6 8 9 8 11 6 6 13 14 12 3 4 4 1 5 5 5 6
Wind_Direction
103 107 107 121 151 170 156 162 145 135 140 148 159 195 222 253 277 241 45 295 306 315 323 289 297 277 22 29 334 50 60 67 355 87 151 200 97 335 177 122 336 220 142 155 153
92 87 87 112 146 145 136 128 117 118 129 134 139 265 283 162 176 64 295 324 310 316 320 2 250 218 33 12 357 68 81 119 329 69 104 111 92 298 23 7 285 24 28 118 143
87 72 73 95 137 130 117 91 108 103 105 120 96 43 17 352 306 12 341 332 320 307 250 280 255 228 57 32 7 19 118 141 21 46 31 54 35 317 82 286 217 152 182 175 152
77 72 79 76 85 102 101 118 91 97 93 105 90 7 340 310 141 301 341 334 313 290 313 323 42 59 93 81 29 87 34 62 79 37 34 49 306 328 214 223 141 169 161 162 178
81 85 88 83 74 89 105 102 111 93 77 62 50 12 350 62 28 292 330 333 315 359 43 15 60 49 99 102 38 81 95 52 94 86 302 28 275 240 258 251 263 208 192 186 199
84 93 83 87 89 42 87 82 92 79 33 359 7 353 155 78 256 301 347 359 21 50 29 36 21 36 91 71 77 14 97 131 102 282 338 327 273 27 264 219 131 188 210 217 214
73 72 89 88 88 105 75 82 80 64 330 355 28 37 58 156 292 312 302 34 10 104 92 36 319 74 9 84 300 90 75 289 211 193 293 317 283 217 238 176 190 215 230 223 216
53 52 69 66 83 76 71 58 69 7 263 295 357 77 84 279 313 9 359 45 40 55 95 58 40 90 62 102 51 100 65 24 224 350 283 6 274 268 258 187 211 241 248 221 215
42 47 61 65 65 59 44 39 109 228 262 303 36 100 54 303 19 318 22 1 328 64 57 52 67 102 46 69 22 353 193 196 300 96 322 71 276 267 231 241 249 253 256 235 223
28 31 35 51 44 40 33 359 318 286 280 258 316 53 14 358 321 313 320 333 57 48 34 46 52 61 29 62 192 258 25 332 335 26 288 262 269 276 257 263 261 248 245 236 142
16 10 9 9 37 353 6 6 22 3 35 103 32 77 18 322 326 355 336 329 114 42 80 26 69 98 158 54 172 180 6 296 287 17 357 225 274 292 290 247 249 233 150 110 112
8 357 330 210 226 3 78 59 204 188 64 39 78 64 213 12 20 346 359 49 51 89 65 29 87 233 298 320 282 356 10 325 287 34 345 317 294 294 350 358 180 149 130 123 126
0 348 320 256 328 41 81 119 291 336 86 9 39 51 308 14 51 332 8 0 71 50 25 118 169 227 299 39 23 53 136 29 242 331 253 310 315 360 3 31 58 65 116 135 169
5 358 26 182 50 165 52 306 329 16 79 328 357 3 343 46 32 311 348 35 36 115 82 79 309 2 354 137 260 179 45 25 358 35 270 53 279 318 282 107 111 83 69 108 121
356 352 339 133 165 59 267 319 325 56 68 299 345 303 303 75 153 346 312 35 89 102 83 235 168 201 225 162 40 145 347 57 76 8 37 318 73 269 225 327 66 115 116 120 111
346 343 358 16 53 316 302 341 46 44 277 358 286 226 94 56 74 201 28 44 71 76 49 135 221 101 187 151 130 320 52 38 48 75 27 247 114 291 277 227 131 73 97 94 67
336 344 35 39 168 300 8 59 38 87 253 311 45 328 88 18 63 64 101 45 106 71 347 57 128 166 61 30 9 64 51 347 0 9 215 256 43 238 282 63 141 152 110 62 29
333 339 44 75 321 12 70 50 71 219 160 255 264 295 87 8 13 122 136 92 33 83 104 120 330 192 158 74 170 50 130 146 224 236 265 202 241 259 226 125 134 138 71 54 27
336 348 32 333 345 63 73 54 181 176 321 169 287 179 30 2 62 14 64 89 50 38 133 143 281 31 44 33 87 20 77 145 113 310 40 237 268 315 57 79 70 78 70 45 18
57 38 315 315 23 63 73 146 138 332 348 313 281 136 155 173 96 160 156 318 124 57 79 194 43 179 126 51 358 153 291 73 358 155 278 291 269 226 196 141 136 94 100 32 6
65 48 268 356 60 49 105 155 117 357 37 49 22 50 75 127 111 143 118 329 77 193 2 55 103 300 73 196 179 112 264 222 147 153 183 301 273 217 181 191 134 135 131 93 14
77 47 283 45 48 45 75 32 263 142 304 348 24 50 63 56 49 81 92 75 20 74 57 316 144 225 240 127 92 190 219 161 123 240 227 153 274 232 170 199 99 149 104 36 4
68 262 333 78 81 28 230 77 72 62 52 25 74 29 6 59 92 57 80 306 61 47 131 97 323 6 337 351 344 223 233 204 112 76 224 143 264 153 109 40 332 137 50 3 356
83 25 333 38 100 122 114 124 88 359 88 54 125 24 21 113 56 112 145 137 61 62 113 68 215 180 196 209 160 233 227 213 151 143 211 224 250 189 136 165 132 48 0 356 341
39 172 193 344 345 3 93 347 135 169 301 56 222 209 122 153 171 197 155 158 184 173 124 122 232 237 256 253 225 230 232 215 201 204 190 220 222 232 219 249 203 134 354 353 337
82 83 8 259 308 358 3 355 74 167 152 197 161 177 181 179 141 163 151 199 213 164 169 164 271 334 285 267 251 261 242 229 234 237 248 257 272 266 278 166 130 342 354 337 337
333 352 100 274 352 61 322 338 6 359 351 143 184 74 236 237 194 220 202 193 175 164 194 158 171 40 266 329 325 291 244 207 196 208 216 222 244 236 156 160 128 332 355 331 322